Precipitable_Water
0.88 0.87 0.91 0.98 1.18 1.32 1.34 1.37 1.35 1.41 1.39 1.32 1.27 1.25 1.19 1.26 1.30 1.35 1.38 1.39 1.36 1.33 1.31 1.31 1.31 1.33 1.29 1.26 1.24 1.22 1.17 1.17 1.23 1.14 1.08 1.09 1.06 0.96 0.93 0.95 0.97 1.02 1.07
0.83 0.83 0.85 0.85 1.00 1.08 1.06 1.10 1.21 1.26 1.26 1.26 1.25 1.22 1.18 1.20 1.22 1.26 1.28 1.31 1.31 1.32 1.31 1.29 1.27 1.28 1.22 1.19 1.17 1.13 1.06 1.06 1.12 0.97 0.94 0.72 0.71 0.79 0.90 0.94 0.96 0.98 0.97
0.81 0.79 0.79 0.79 0.79 0.82 0.86 0.88 0.95 1.02 1.08 1.15 1.13 1.11 1.11 1.11 1.08 1.10 1.14 1.12 1.15 1.16 1.17 1.17 1.16 1.15 1.16 1.06 1.07 1.07 1.02 0.93 1.01 1.03 0.88 0.70 0.61 0.76 0.91 0.88 0.89 0.88 0.93
0.84 0.79 0.76 0.78 0.79 0.80 0.84 0.82 0.83 0.84 0.87 0.88 0.85 0.84 0.82 0.77 0.80 0.82 0.84 0.84 0.89 0.90 0.93 0.95 0.98 1.01 1.03 0.99 0.98 1.01 0.98 0.99 0.90 0.96 0.99 0.97 0.88 0.72 0.66 0.83 0.83 0.91 0.94
0.84 0.78 0.78 0.78 0.83 0.86 0.86 0.86 0.85 0.84 0.83 0.79 0.74 0.70 0.67 0.67 0.67 0.67 0.67 0.69 0.74 0.76 0.76 0.77 0.78 0.79 0.83 0.85 0.86 0.89 0.92 0.95 0.92 0.91 0.91 0.90 0.90 0.88 0.77 0.68 0.82 0.89 0.88
0.82 0.80 0.80 0.82 0.82 0.87 0.89 0.89 0.86 0.83 0.82 0.80 0.79 0.76 0.72 0.69 0.68 0.69 0.68 0.70 0.72 0.72 0.73 0.74 0.74 0.76 0.77 0.77 0.80 0.83 0.83 0.86 0.90 0.91 1.00 0.90 0.86 0.82 0.80 0.73 0.75 0.76 0.73
0.83 0.78 0.76 0.76 0.80 0.81 0.84 0.85 0.83 0.80 0.81 0.80 0.79 0.78 0.77 0.76 0.73 0.71 0.70 0.69 0.70 0.70 0.69 0.72 0.71 0.71 0.72 0.74 0.77 0.80 0.82 0.84 0.85 0.91 0.95 0.98 0.94 0.96 0.89 0.84 0.76 0.68 0.72
0.82 0.79 0.77 0.75 0.78 0.80 0.82 0.82 0.80 0.78 0.81 0.81 0.78 0.78 0.77 0.74 0.73 0.72 0.72 0.71 0.70 0.71 0.74 0.74 0.74 0.73 0.73 0.74 0.76 0.81 0.81 0.86 0.92 0.92 0.94 0.91 0.98 0.94 0.90 0.81 0.69 0.57 0.63
0.58 0.72 0.76 0.78 0.79 0.80 0.81 0.81 0.81 0.80 0.81 0.80 0.77 0.74 0.74 0.73 0.71 0.71 0.71 0.70 0.70 0.70 0.70 0.71 0.70 0.69 0.68 0.68 0.70 0.72 0.74 0.77 0.80 0.80 0.84 0.83 0.85 0.81 0.77 0.75 0.71 0.63 0.52
0.53 0.58 0.70 0.77 0.78 0.80 0.81 0.82 0.82 0.80 0.79 0.78 0.76 0.74 0.73 0.71 0.70 0.69 0.66 0.66 0.67 0.67 0.67 0.66 0.66 0.66 0.65 0.65 0.66 0.66 0.68 0.70 0.72 0.75 0.74 0.74 0.73 0.72 0.71 0.69 0.69 0.69 0.60
0.48 0.55 0.62 0.71 0.79 0.78 0.76 0.78 0.79 0.78 0.76 0.74 0.73 0.73 0.72 0.72 0.70 0.67 0.66 0.65 0.65 0.65 0.64 0.63 0.62 0.62 0.62 0.63 0.62 0.62 0.64 0.65 0.66 0.68 0.66 0.64 0.66 0.63 0.64 0.68 0.67 0.64 0.63
0.48 0.53 0.58 0.64 0.71 0.76 0.80 0.79 0.77 0.74 0.74 0.74 0.73 0.71 0.71 0.71 0.69 0.68 0.66 0.67 0.65 0.65 0.64 0.64 0.63 0.62 0.62 0.63 0.63 0.62 0.64 0.63 0.61 0.61 0.61 0.58 0.58 0.61 0.64 0.64 0.62 0.63 0.63
0.52 0.55 0.59 0.62 0.65 0.70 0.72 0.73 0.74 0.73 0.73 0.72 0.71 0.70 0.70 0.70 0.69 0.69 0.68 0.67 0.66 0.65 0.64 0.63 0.61 0.61 0.62 0.63 0.65 0.65 0.64 0.61 0.59 0.59 0.58 0.60 0.63 0.63 0.65 0.64 0.62 0.61 0.61
0.52 0.56 0.60 0.63 0.66 0.66 0.67 0.68 0.70 0.73 0.73 0.72 0.71 0.70 0.70 0.70 0.69 0.70 0.69 0.69 0.67 0.65 0.65 0.64 0.63 0.64 0.65 0.65 0.66 0.67 0.66 0.66 0.66 0.67 0.67 0.67 0.66 0.60 0.55 0.54 0.54 0.55 0.52
0.53 0.56 0.57 0.61 0.65 0.65 0.66 0.68 0.69 0.71 0.72 0.71 0.71 0.70 0.71 0.71 0.71 0.71 0.71 0.71 0.69 0.67 0.67 0.65 0.65 0.66 0.67 0.67 0.67 0.68 0.68 0.68 0.67 0.66 0.61 0.56 0.48 0.43 0.42 0.39 0.37 0.35 0.32
0.56 0.59 0.61 0.63 0.63 0.65 0.67 0.68 0.69 0.71 0.73 0.72 0.71 0.71 0.71 0.71 0.71 0.71 0.69 0.68 0.67 0.67 0.68 0.68 0.68 0.69 0.68 0.70 0.70 0.68 0.66 0.66 0.59 0.44 0.35 0.30 0.27 0.27 0.28 0.27 0.29 0.28 0.26
0.57 0.60 0.61 0.64 0.65 0.66 0.67 0.65 0.69 0.73 0.73 0.73 0.73 0.72 0.72 0.72 0.72 0.72 0.69 0.67 0.67 0.70 0.70 0.71 0.70 0.68 0.69 0.68 0.65 0.57 0.45 0.35 0.29 0.26 0.26 0.26 0.28 0.27 0.28 0.29 0.30 0.32 0.31
0.56 0.60 0.63 0.67 0.68 0.70 0.68 0.69 0.73 0.73 0.72 0.71 0.73 0.75 0.74 0.73 0.73 0.72 0.70 0.71 0.72 0.71 0.71 0.69 0.67 0.63 0.59 0.47 0.37 0.31 0.27 0.26 0.26 0.27 0.29 0.29 0.32 0.33 0.30 0.29 0.30 0.32 0.33
0.59 0.61 0.67 0.70 0.70 0.69 0.69 0.70 0.72 0.73 0.72 0.71 0.73 0.74 0.73 0.71 0.71 0.71 0.72 0.73 0.71 0.70 0.68 0.65 0.58 0.51 0.40 0.35 0.30 0.28 0.27 0.27 0.27 0.30 0.32 0.32 0.33 0.35 0.34 0.32 0.30 0.30 0.32
0.61 0.65 0.66 0.66 0.65 0.66 0.68 0.66 0.66 0.70 0.71 0.72 0.73 0.74 0.73 0.71 0.70 0.70 0.71 0.72 0.71 0.68 0.66 0.59 0.54 0.43 0.35 0.31 0.28 0.26 0.26 0.25 0.26 0.28 0.30 0.33 0.35 0.36 0.36 0.33 0.31 0.31 0.33
0.59 0.63 0.62 0.61 0.64 0.66 0.66 0.64 0.66 0.67 0.72 0.74 0.75 0.74 0.73 0.72 0.72 0.71 0.72 0.71 0.68 0.68 0.64 0.55 0.45 0.36 0.33 0.31 0.29 0.27 0.25 0.25 0.26 0.28 0.29 0.32 0.35 0.36 0.36 0.34 0.32 0.35 0.37
0.58 0.62 0.61 0.63 0.67 0.67 0.67 0.65 0.65 0.73 0.76 0.75 0.75 0.75 0.75 0.73 0.72 0.71 0.71 0.69 0.67 0.64 0.53 0.45 0.36 0.31 0.30 0.31 0.31 0.31 0.29 0.27 0.26 0.27 0.29 0.32 0.32 0.33 0.34 0.33 0.35 0.39 0.38
0.58 0.62 0.62 0.64 0.68 0.70 0.70 0.68 0.72 0.77 0.76 0.74 0.73 0.74 0.75 0.73 0.72 0.69 0.66 0.64 0.64 0.56 0.43 0.34 0.28 0.25 0.25 0.27 0.29 0.30 0.29 0.29 0.27 0.28 0.30 0.31 0.30 0.30 0.30 0.32 0.37 0.38 0.36
0.61 0.63 0.63 0.62 0.63 0.69 0.72 0.75 0.77 0.79 0.77 0.74 0.72 0.73 0.72 0.72 0.72 0.69 0.67 0.64 0.57 0.40 0.33 0.29 0.27 0.26 0.25 0.24 0.26 0.28 0.28 0.29 0.29 0.29 0.31 0.30 0.30 0.29 0.30 0.33 0.34 0.34 0.35
0.69 0.68 0.67 0.69 0.70 0.73 0.74 0.77 0.80 0.81 0.77 0.76 0.74 0.73 0.72 0.70 0.70 0.69 0.68 0.64 0.53 0.40 0.35 0.32 0.30 0.28 0.26 0.25 0.25 0.26 0.27 0.27 0.28 0.30 0.31 0.30 0.28 0.28 0.30 0.32 0.33 0.34 0.36
0.74 0.73 0.71 0.72 0.76 0.78 0.80 0.80 0.81 0.80 0.77 0.75 0.74 0.73 0.73 0.71 0.69 0.68 0.66 0.68 0.56 0.45 0.42 0.38 0.35 0.33 0.31 0.29 0.28 0.28 0.29 0.30 0.31 0.32 0.30 0.29 0.29 0.29 0.30 0.31 0.33 0.34 0.36
Wind_Speed
30 29 29 29 29 28 29 28 27 27 26 25 25 25 25 24 24 25 25 25 25 25 25 25 25 26 26 27 28 29 30 30 30 30 31 31 31 32 32 32 31 30 29
34 31 30 30 30 29 28 27 27 27 27 27 26 26 25 25 25 25 26 26 27 27 28 28 28 29 30 30 31 31 31 31 31 31 31 31 30 31 28 28 27 27 28
37 34 33 32 31 31 30 29 28 28 28 28 27 27 27 27 27 27 27 27 28 29 30 31 31 32 32 32 33 32 32 32 32 32 31 30 29 27 28 27 28 28 26
39 36 34 35 34 33 32 31 30 30 29 29 29 29 29 29 28 28 29 29 30 30 30 31 32 32 33 33 33 33 33 33 33 32 32 31 31 29 29 28 27 27 27
40 37 36 34 36 35 34 33 32 32 31 31 30 30 30 30 30 30 31 31 31 32 32 32 33 33 33 34 33 33 33 33 33 32 30 30 30 30 30 30 27 27 26
41 38 36 35 35 35 35 35 34 33 32 31 31 31 31 31 31 31 32 32 32 32 31 32 31 32 31 31 31 32 32 32 32 31 31 31 30 29 29 29 28 27 27
42 38 36 35 34 34 34 33 33 32 32 31 31 32 32 32 32 32 32 32 32 32 31 31 32 32 32 32 33 32 32 32 31 31 31 32 31 30 30 28 27 26 24
40 40 38 37 36 34 32 31 31 30 30 30 30 31 31 31 31 31 31 31 32 32 32 32 32 32 32 32 32 31 30 30 30 30 29 29 29 29 27 27 26 26 25
30 34 37 36 36 36 34 32 31 30 29 29 29 29 29 29 30 30 30 31 32 32 33 33 33 32 31 30 30 29 29 29 29 29 28 28 27 27 26 25 25 25 24
26 29 32 34 34 34 33 33 32 31 30 30 29 29 28 28 29 30 31 31 32 32 32 31 31 31 30 30 29 29 28 28 28 28 27 26 26 25 24 24 24 24 24
24 26 28 30 32 32 31 31 30 30 30 29 29 29 29 29 29 30 30 30 30 30 30 30 30 29 29 29 28 28 28 28 27 26 25 24 24 23 23 23 23 23 24
19 22 25 27 29 30 30 30 30 29 28 29 29 29 29 29 29 29 30 29 29 29 29 29 28 28 27 27 27 26 26 25 24 23 22 22 21 21 21 21 22 22 22
12 17 21 24 27 29 29 29 29 28 28 28 29 29 30 30 30 29 29 29 29 28 28 28 27 27 26 26 25 24 23 22 21 20 19 19 19 19 19 19 19 19 19
14 15 19 21 23 25 27 28 28 28 29 29 29 29 30 30 29 29 29 29 29 28 27 27 26 26 25 24 23 21 20 18 17 17 16 16 16 15 15 15 16 17 18
17 18 19 21 23 24 24 25 26 26 27 28 29 30 30 30 30 30 29 29 28 27 27 26 24 23 23 22 20 18 17 15 15 14 13 12 12 13 14 15 17 18 19
20 21 22 23 23 24 24 25 25 25 26 27 27 28 28 28 28 28 28 27 26 25 24 23 22 21 20 18 17 16 14 13 12 12 11 11 12 13 14 15 16 17 17
25 24 24 24 23 23 23 24 24 24 25 26 26 26 26 26 27 26 26 25 24 23 22 21 20 18 17 15 14 12 12 11 11 11 11 11 12 13 14 15 16 16 16
26 24 23 23 22 22 22 21 21 22 23 23 24 25 24 24 24 24 23 23 23 22 21 19 17 16 14 13 12 11 11 10 10 10 10 11 12 13 14 15 16 16 16
19 21 21 20 21 20 20 20 21 21 21 21 21 21 22 21 21 22 21 21 20 19 18 17 16 15 14 13 12 12 11 11 10 10 11 11 12 13 14 15 16 17 18
18 18 19 18 19 19 19 18 19 19 19 21 20 20 20 20 20 21 20 19 18 18 17 16 16 15 14 14 13 12 12 11 11 11 11 12 13 14 15 16 17 18 18
18 18 18 18 17 18 18 18 18 18 18 18 18 19 19 19 19 18 18 18 17 17 17 17 16 15 14 14 13 13 12 12 12 12 13 13 14 15 16 17 18 18 19
16 17 17 18 18 18 19 18 18 17 17 16 17 17 17 16 16 16 16 16 16 16 16 16 16 16 15 15 15 14 14 14 14 14 14 15 16 17 17 18 19 19 19
14 16 17 18 18 19 19 19 19 18 17 17 17 16 16 16 16 16 16 15 16 16 17 17 17 17 17 16 16 16 15 15 15 15 16 16 17 18 19 19 19 20 21
14 15 16 17 18 19 19 19 19 19 18 17 16 15 16 16 16 16 16 17 17 18 18 18 18 18 18 18 18 17 17 17 17 17 17 18 19 19 20 20 21 21 22
14 16 17 17 17 18 18 18 18 18 18 18 17 16 17 17 17 18 18 19 19 20 20 20 20 20 20 20 19 19 18 18 18 18 19 20 20 21 21 22 22 22 23
14 15 16 17 18 18 18 19 19 21 19 18 18 17 17 18 18 19 19 22 22 22 23 22 22 22 22 21 21 21 21 20 20 20 21 21 22 22 22 23 23 23 24
Wind_Direction
224 223 222 222 222 222 224 225 226 228 231 235 239 243 247 250 254 257 260 263 266 268 270 272 275 277 279 281 283 285 286 288 289 291 293 292 293 293 293 293 295 294 293
224 223 224 222 222 222 224 226 228 231 234 238 242 246 249 252 256 259 261 264 266 268 270 273 275 277 279 281 283 284 286 287 288 290 293 294 294 293 293 294 293 294 294
224 226 226 223 223 225 228 230 233 236 239 241 245 249 252 255 258 260 263 266 268 270 272 274 276 277 279 281 282 283 284 286 287 287 289 293 294 296 293 292 293 294 293
223 226 227 226 227 228 230 233 236 239 242 245 248 250 254 256 259 261 264 266 269 271 274 276 277 278 279 280 282 283 283 284 286 287 286 287 290 293 294 294 293 292 291
222 226 227 229 230 232 234 236 239 242 245 247 250 252 255 258 260 262 265 267 270 272 274 276 278 279 280 281 282 282 283 283 284 285 286 286 287 288 290 293 291 291 291
223 227 229 230 232 233 235 239 242 244 246 248 251 254 256 258 261 263 266 268 270 272 275 277 278 279 281 282 283 284 284 283 282 283 283 285 288 288 288 288 288 289 291
223 227 227 230 232 233 235 237 239 241 245 248 252 255 258 260 262 264 266 268 270 272 274 277 278 279 281 283 283 284 284 283 282 282 283 284 285 286 287 286 288 288 290
228 230 232 233 232 232 233 234 238 241 245 250 253 257 259 260 262 264 266 268 270 272 275 277 278 280 281 282 283 283 283 283 284 283 284 285 284 285 285 286 286 287 287
230 230 232 232 230 231 232 235 238 242 246 250 254 257 259 261 262 264 266 268 271 273 275 277 278 280 281 282 282 282 282 283 283 284 284 284 284 285 285 285 285 286 288
230 230 229 228 228 229 232 236 240 243 248 251 254 256 259 261 264 266 268 270 272 273 275 277 278 279 280 281 281 281 282 282 283 283 283 283 283 283 284 285 286 286 286
232 229 227 226 226 227 230 235 239 243 247 250 253 257 260 263 265 267 269 271 272 273 274 276 277 278 279 280 280 281 281 281 281 281 281 281 282 282 284 285 286 286 287
231 229 226 226 226 229 232 236 240 243 247 250 254 257 260 263 265 268 270 271 272 272 273 275 276 277 278 279 280 280 281 280 280 279 279 280 281 283 284 286 286 287 288
231 227 226 227 228 230 234 236 239 244 248 252 256 259 262 264 265 267 269 270 271 271 273 274 274 275 277 278 279 279 279 278 279 279 279 281 282 285 287 288 288 289 290
241 235 230 228 229 232 234 238 241 246 250 254 257 260 262 263 264 265 267 268 269 270 271 272 273 273 275 276 276 275 274 274 275 277 280 282 284 286 290 293 294 295 294
244 242 237 235 234 234 236 239 244 249 252 256 258 260 262 263 264 265 266 267 267 267 268 268 269 272 272 273 271 270 269 268 270 275 279 282 286 290 294 296 298 298 297
247 246 241 238 238 239 241 243 246 250 254 257 260 260 261 262 263 264 265 264 265 264 264 265 267 268 268 266 264 263 262 263 265 270 275 280 287 294 299 301 303 304 301
252 248 240 238 240 240 242 246 249 252 256 260 260 260 260 262 263 263 262 262 261 262 262 263 261 261 260 258 255 254 255 258 262 267 274 283 291 297 300 304 305 306 307
251 243 236 237 240 241 243 247 250 253 258 261 261 259 261 263 263 261 260 259 260 259 257 255 253 252 249 246 245 247 253 257 262 268 277 286 294 299 304 306 305 304 304
241 233 232 239 238 239 244 248 252 254 258 259 260 259 260 262 261 258 256 256 254 251 249 247 244 241 240 241 243 247 251 255 261 269 279 288 295 301 305 307 306 305 304
239 232 233 236 237 238 243 248 250 254 257 256 258 258 260 262 262 258 253 253 249 245 241 238 238 238 238 239 243 247 251 253 262 271 279 288 295 300 305 306 307 306 306
236 231 233 237 239 240 244 249 251 253 257 258 259 259 261 262 260 254 250 246 242 239 237 235 233 234 236 240 243 246 251 257 265 272 280 287 294 299 303 305 307 308 308
233 233 234 238 242 244 246 250 251 252 254 257 258 260 261 258 254 249 246 241 237 233 229 229 232 236 239 243 246 248 255 261 268 274 280 287 292 297 301 303 305 307 308
234 236 239 242 246 247 247 248 250 250 253 257 259 261 258 254 250 247 241 235 231 232 233 235 238 241 244 247 248 252 258 263 270 275 280 287 291 295 298 301 303 304 306
240 241 242 246 248 248 249 249 249 248 250 254 259 260 256 253 249 245 240 238 237 237 237 240 244 246 248 250 252 255 260 264 269 275 281 286 290 293 296 298 300 302 304
246 248 249 250 250 249 249 249 247 245 250 253 257 259 257 253 250 246 243 243 243 242 243 246 248 249 251 252 254 256 260 265 270 276 281 285 288 291 294 296 298 301 303
252 253 252 252 252 252 250 249 251 248 248 252 256 259 258 255 252 250 249 249 248 247 248 251 253 253 254 255 256 257 261 265 270 276 280 284 286 289 291 293 296 298 300